This is the latest recevied weather packets stored in our database for station/object DK0KTL-4. If no packets are shown the sender has not sent any weather packets the latest 10 day(s).
| Time | Temp. | Humidity | Pressure | Rain* | Wind** | Luminosity | Snow |
|---|---|---|---|---|---|---|---|
| 1778085152 | 19.44° C | 66% | 1003 hPa | 0 mm | - | - | - |
| 1778083651 | 19.44° C | 65% | 1003.1 hPa | 0 mm | - | - | - |
| 1778081549 | 20° C | 52% | 1003.2 hPa | 0 mm | - | - | - |
| 1778080648 | 20.56° C | 51% | 1003.4 hPa | 0 mm | - | - | - |
| 1778077044 | 21.11° C | 53% | 1003.6 hPa | 0 mm | - | - | - |
| 1778076444 | 21.11° C | 51% | 1003.6 hPa | 0 mm | - | - | - |
| 1778074642 | 21.11° C | 52% | 1003.8 hPa | 0 mm | - | - | - |
| 1778074342 | 21.11° C | 51% | 1003.6 hPa | 0 mm | - | - | - |
| 1778070738 | 20° C | 53% | 1004 hPa | 0 mm | - | - | - |
| 1778068036 | 19.44° C | 55% | 1004 hPa | 0 mm | - | - | - |
| 1778065033 | 17.78° C | 63% | 1004.1 hPa | 0 mm | - | - | - |
| 1778061730 | 17.78° C | 64% | 1004.5 hPa | 0 mm | - | - | - |
| 1778060829 | 17.78° C | 65% | 1004.4 hPa | 0 mm | - | - | - |
| 1778059928 | 17.78° C | 63% | 1004.2 hPa | 0 mm | - | - | - |
| 1778056625 | 16.67° C | 70% | 1004 hPa | 0 mm | - | - | - |
| 1778056324 | 17.22° C | 69% | 1003.9 hPa | 0 mm | - | - | - |
| 1778055123 | 16.11° C | 74% | 1003.7 hPa | 0 mm | - | - | - |
| 1778054823 | 16.11° C | 74% | 1003.8 hPa | 0 mm | - | - | - |
| 1778054222 | 16.11° C | 79% | 1003.7 hPa | 0 mm | - | - | - |
| 1778053021 | 15.56° C | 77% | 1003.8 hPa | 0 mm | - | - | - |
| 1778052721 | 15.56° C | 80% | 1003.7 hPa | 0 mm | - | - | - |
| 1778052420 | 15° C | 83% | 1003.7 hPa | 0 mm | - | - | - |
| 1778052120 | 15° C | 83% | 1003.8 hPa | 0 mm | - | - | - |
| 1778050619 | 13.89° C | 89% | 1003.9 hPa | 0 mm | - | - | - |
| 1778048516 | 12.78° C | 90% | 1004.1 hPa | 0 mm | - | - | - |
* Rain latest hour (hover to see other rain measurements)
** Current wind speed in m/s (hover to see current wind gust speed)